Decatur, IL

4:18 AM CST on December 17, 2017 (GMT -0600)
Decatur

Weather History for KDEC - November, 2011

Change the Weather History Date:

Thursday, November 3, 2011

  Actual Average Record
Temperature  
Mean Temperature 50 °F 48 °F  
Max Temperature 53 °F 58 °F 77 °F (2003)
Min Temperature 47 °F 39 °F 21 °F (1996)
Degree Days  
Heating Degree Days 15 17  
Month to date heating degree days 32 49  
Since 1 July heating degree days 432 467  
Cooling Degree Days 0 0  
Month to date cooling degree days 0 0  
Year to date cooling degree days 1327 1048  
Moisture  
Dew Point 46 °F    
Average Humidity 83    
Maximum Humidity 100    
Minimum Humidity 66    
Precipitation  
Precipitation 0.93 in 0.10 in 0.93 in (2011)
Month to date precipitation 0.93 0.32  
Year to date precipitation 29.13 32.80  
Sea Level Pressure  
Sea Level Pressure 29.90 in    
Wind  
Wind Speed 15 mph (NE)    
Max Wind Speed 30 mph    
Max Gust Speed 35 mph    
Visibility 5 miles    
Events Rain    
T = Trace of Precipitation, MM = Missing Value Source: NWS Daily Summary

Daily Weather History Graph

Daily Weather History Graph

Search for Another Location

Airport or City:

Trip Planner

Search our weather history database for the weather conditions in past years. The results will help you decide how hot, cold, wet, or windy it might be!

Date:

Astronomy

Nov. 03, 2011 Rise Set
Actual Time 7:26 AM CDT 5:51 PM CDT
Civil Twilight 6:58 AM CDT 6:19 PM CDT
Nautical Twilight 6:26 AM CDT 6:51 PM CDT
Astronomical Twilight 5:54 AM CDT 7:22 PM CDT
Moon 2:14 PM CDT (11/3) 12:39 AM CDT (11/3)
Length of Visible Light 11h 21m
Length of Day
10h 25m
First Quarter, 60% of the Moon is Illuminated
Nov 3
First Quarter
Nov 10
Full
Nov 18
Last Quarter
Nov 25
New
Dec 2
First Quarter

Hourly Weather History & Observations

Time (CDT) Temp. Windchill Dew Point Humidity Pressure Visibility Wind Dir Wind Speed Gust Speed Precip Events Conditions
12:54 AM 53.1 °F - 43.0 °F 69% 29.91 in 10.0 mi SSE 8.1 mph - N/A   Clear
1:54 AM 52.0 °F - 42.1 °F 69% 29.90 in 10.0 mi SSE 5.8 mph - N/A   Clear
2:54 AM 48.9 °F - 43.0 °F 80% 29.89 in 10.0 mi NE 3.5 mph - N/A   Overcast
3:54 AM 50.0 °F - 44.6 °F 82% 29.91 in 4.0 mi Calm Calm - N/A Rain Rain
4:54 AM 48.0 °F - 46.0 °F 93% 29.86 in 3.0 mi East 9.2 mph - 0.21 in Rain Heavy Rain
5:42 AM 46.4 °F 41.1 °F 44.6 °F 93% 29.85 in 4.0 mi East 11.5 mph - 0.22 in Rain Rain
5:54 AM 46.9 °F - 45.0 °F 93% 29.83 in 3.0 mi East 11.5 mph - 0.26 in Rain Rain
6:12 AM 46.4 °F 41.1 °F 46.4 °F 100% 29.83 in 3.0 mi East 11.5 mph - 0.07 in Rain Rain
6:35 AM 46.4 °F 40.4 °F 46.4 °F 100% 29.82 in 3.0 mi East 13.8 mph - 0.14 in Rain Rain
6:54 AM 46.4 °F 40.1 °F 46.4 °F 100% 29.79 in 4.0 mi East 15.0 mph - N/A Rain Light Rain
7:54 AM 46.9 °F - - N/A% 29.81 in 3.0 mi East 17.3 mph - 0.06 in Rain Rain
8:16 AM 46.4 °F 39.8 °F - N/A% 29.82 in 2.5 mi East 16.1 mph - 0.06 in Rain Rain
8:44 AM 46.4 °F 39.8 °F - N/A% 29.82 in 3.0 mi East 16.1 mph - 0.07 in Rain Light Rain
8:54 AM 46.9 °F - 46.0 °F 97% 29.82 in 3.0 mi East 15.0 mph - 0.07 in Rain Light Rain
9:54 AM 48.0 °F - 46.9 °F 96% 29.82 in 4.0 mi East 15.0 mph - 0.00 in   Overcast
10:10 AM 48.2 °F - 46.4 °F 93% 29.81 in 1.8 mi East 13.8 mph - N/A   Overcast
10:41 AM 48.2 °F - 46.4 °F 93% 29.82 in 0.8 mi East 11.5 mph - 0.00 in Rain Light Rain
10:54 AM 48.0 °F - 48.0 °F 100% 29.82 in 0.8 mi East 10.4 mph - 0.00 in Rain Light Rain
11:18 AM 48.2 °F - 48.2 °F 100% 29.82 in 1.0 mi ENE 10.4 mph - 0.01 in Rain Light Rain
11:31 AM 48.2 °F - 48.2 °F 100% 29.82 in 0.8 mi ENE 11.5 mph - 0.01 in Rain Light Rain
11:54 AM 48.9 °F - 48.0 °F 97% 29.83 in 1.2 mi NE 12.7 mph - 0.09 in Rain Light Rain
12:13 PM 48.2 °F - 48.2 °F 100% 29.82 in 2.0 mi NE 16.1 mph - 0.01 in Rain Light Rain
12:20 PM 48.2 °F - 48.2 °F 100% 29.82 in 1.5 mi NE 15.0 mph - 0.03 in Rain Rain
12:42 PM 48.2 °F - 48.2 °F 100% 29.83 in 2.0 mi NE 18.4 mph - 0.04 in Rain Light Rain
12:54 PM 48.9 °F - 48.0 °F 97% 29.83 in 3.0 mi NNE 16.1 mph - 0.04 in Rain Light Rain
1:54 PM 48.0 °F - 46.9 °F 96% 29.83 in 3.0 mi NE 23.0 mph 29.9 mph 0.00 in Rain Light Rain
2:49 PM 48.2 °F - 46.4 °F 93% 29.84 in 4.0 mi NE 19.6 mph 29.9 mph 0.00 in Rain Light Rain
2:54 PM 48.9 °F - 46.9 °F 93% 29.85 in 4.0 mi NE 19.6 mph 26.5 mph 0.00 in Rain Light Rain
3:14 PM 48.2 °F - 46.4 °F 93% 29.86 in 5.0 mi NE 18.4 mph 27.6 mph 0.01 in Rain Light Rain
3:54 PM 48.9 °F - 46.9 °F 93% 29.88 in 4.0 mi NE 25.3 mph 31.1 mph 0.01 in Rain Light Rain
4:54 PM 48.0 °F - 46.0 °F 93% 29.94 in 6.0 mi NNE 23.0 mph 31.1 mph 0.00 in   Overcast
5:54 PM 48.0 °F - 46.0 °F 93% 29.97 in 6.0 mi NNE 24.2 mph 29.9 mph 0.01 in Rain Light Rain
6:40 PM 48.2 °F - 44.6 °F 87% 30.00 in 10.0 mi NNE 18.4 mph 29.9 mph 0.00 in   Overcast
6:54 PM 48.0 °F - 45.0 °F 89% 30.02 in 10.0 mi North 20.7 mph 27.6 mph 0.00 in   Overcast
7:24 PM 48.2 °F - 44.6 °F 87% 30.03 in 10.0 mi NNE 20.7 mph 29.9 mph N/A   Overcast
7:54 PM 48.0 °F - 45.0 °F 89% 30.05 in 10.0 mi NNE 20.7 mph 28.8 mph 0.00 in   Overcast
8:03 PM 48.2 °F - 44.6 °F 87% 30.05 in 10.0 mi NNE 18.4 mph 28.8 mph N/A   Overcast
8:54 PM 48.2 °F - 44.6 °F 87% 30.08 in 10.0 mi North 16.1 mph 27.6 mph N/A   Overcast
9:47 PM 48.2 °F - 44.6 °F 87% 30.09 in 10.0 mi NNE 20.7 mph 27.6 mph N/A   Overcast
9:54 PM 48.0 °F - 45.0 °F 89% 30.10 in 10.0 mi NNE 19.6 mph 26.5 mph N/A   Overcast
10:54 PM 46.9 °F - 44.1 °F 90% 30.11 in 10.0 mi North 17.3 mph 25.3 mph N/A   Overcast
11:49 PM 46.4 °F 39.8 °F 42.8 °F 87% 30.12 in 10.0 mi North 16.1 mph - N/A   Overcast
11:54 PM 46.9 °F - 43.0 °F 86% 30.13 in 10.0 mi NNE 15.0 mph - N/A   Overcast